Hourly Weather Roundup
Issued by NWS Central Illinois

Home | Current Version | Previous Version | Text Only | Print | Product List | Glossary On
Versions: 1 2 3 4 5 6 7 8 9 10 11 12 13 14 15 16 17 18 19 20 21 22 23 24 25 26 27 28 29 30 31 32 33 34 35 36 37 38 39 40 41 42 43 44 45 46 47 48 49 50
000
NZUS43 KILX 270610
HWRILX

AREA WEATHER ROUNDUP
NATIONAL WEATHER SERVICE, LINCOLN IL
1200 AM CST FRI FEB 27 2015


CITY           SKY/WX    TMP DP  RH WIND       PRES   REMARKS
BLOOMINGTON    PTCLDY     7  -1  69 NW9       30.45R WCI  -6
6HR MIN TEMP:   7; 6HR MAX TEMP:  12; 6HR PCP: TRACE;

CHAMPAIGN      CLOUDY    10   1  67 NW10      30.44R WCI  -4
6HR MIN TEMP:   9; 6HR MAX TEMP:  17; 6HR PCP: TRACE;

DECATUR        CLOUDY     9   4  80 NW9       30.47R WCI  -4
6HR MIN TEMP:   9; 6HR MAX TEMP:  17; 6HR PCP: TRACE;

FLORA          LGT SNOW  15  11  83 N10       30.48R WCI   2
6HR MIN TEMP:  15; 6HR MAX TEMP:  21;

GALESBURG      CLEAR     -5  -9  81 W9        30.50R WCI -21
JACKSONVILLE   CLEAR      1  -6  70 NW7       30.53R WCI -12
6HR MIN TEMP:   1; 6HR MAX TEMP:  14;

LACON          CLEAR     -1  -8  73 NW6       30.49S WCI -13
6HR MIN TEMP:  -1; 6HR MAX TEMP:  11;

LAWRENCEVILLE  MOCLDY    13   7  77 N10       30.46R WCI   0
6HR MIN TEMP:  13; 6HR MAX TEMP:  22;

LITCHFIELD     PTCLDY     4  -4  71 NW9       30.51R WCI -11
$$


CITY           SKY/WX    TMP DP  RH WIND       PRES   REMARKS
LINCOLN        FAIR       6  -2  70 NW6       30.52S WCI  -5
6HR MIN TEMP:   6; 6HR MAX TEMP:  16;

MACOMB         CLEAR     -6 -11  79 NW14      30.54S WCI -27
MATTOON        CLOUDY    11   3  70 N10       30.44R WCI  -3
6HR MIN TEMP:  11; 6HR MAX TEMP:  17;

MT CARMEL AP   CLOUDY    19  10  68 NW7       30.45R WCI  10
OLNEY-NOBLE AP FLURRIES  14  10  85 N9        30.48R WCI   2
PARIS          CLOUDY    10   3  75 N5        30.44S WCI   1
6HR MIN TEMP:   6; 6HR MAX TEMP:  17;

PEORIA         CLEAR      2  -7  66 NW6       30.50R WCI  -9
6HR MIN TEMP:   2; 6HR MAX TEMP:  13;

PONTIAC        CLEAR      2  -3  77 NW6       30.47R WCI  -9
RANTOUL        CLOUDY    11   2  68 N9        30.44R WCI  -2
6HR MIN TEMP:   7; 6HR MAX TEMP:  18;

ROBINSON       PTCLDY    10   6  85 N6        30.47S WCI   0
6HR MIN TEMP:   9; 6HR MAX TEMP:  20;

SPRINGFIELD    CLEAR      3  -5  69 NW10      30.51  WCI -12
6HR MIN TEMP:   3; 6HR MAX TEMP:  16; 6HR PCP: TRACE;

TAYLORVILLE    PTCLDY     5  -2  72 NW10      30.50R WCI -10
$$

...REGIONAL REPORTS...


CITY           SKY/WX    TMP DP  RH WIND       PRES   REMARKS
CHICAGO O`HARE PTCLDY     1  -8  66 NW7       30.42R WCI -12
KANKAKEE       CLEAR     -4  -9  77 W5        30.45R WCI -15
MOLINE         CLEAR     -1 -10  65 W8        30.51S WCI -15
MOUNT VERNON   CLOUDY    16   7  67 N5        30.48R WCI   9
PITTSFIELD     PTCLDY     1  -6  71 NW3       30.54S
QUINCY         CLEAR     -3 -11  68 NW7       30.54R WCI -16
ROCKFORD       CLEAR     -4 -12  68 CALM      30.46S
$$


CITY           SKY/WX    TMP DP  RH WIND       PRES   REMARKS
BURLINGTON     CLEAR     -3  -9  75 NW7       30.53  WCI -16
CEDAR RAPIDS   CLEAR    -11 -15  82 NW6       30.50S WCI -25
DES MOINES     CLEAR     -1  -8  72 NW5       30.56S WCI -11
KIRKSVILLE     CLEAR     -1  -5  82 W3        30.55R
OTTUMWA        CLEAR     -3 -10  72 NW9       30.54S WCI -19
ST LOUIS       PTCLDY     9  -2  61 N9        30.54R WCI  -4
$$


CITY           SKY/WX    TMP DP  RH WIND       PRES   REMARKS
TERRE HAUTE    CLOUDY     9   5  84 NW5       30.44R WCI   1
EVANSVILLE     CLEAR     18   6  59 N10       30.44S WCI   6
INDIANAPOLIS   CLEAR      5  -1  76 NW8       30.38R WCI  -8
LAFAYETTE      CLOUDY     8   0  69 NW10      30.42R WCI  -6
MADISON        CLEAR      0  -9  65 NW3       30.43S
MILWAUKEE      CLEAR      6  -5  60 NW6       30.42S WCI  -4
$$





USA.gov is the U.S. government's official web portal to all federal, state and local government web resources and services.